sat.trackr.live / text

‹ back to catalog

STARLINK-32749

NORAD 62508 · 2025-003X

PAYLOAD ACTIVE UNKNOWN

§ Identity

Operator
Country
US
Launch date
2025-01-06
Launch site
AFETR
Launch vehicle
Mass (kg)
RCS (m²)

Purposes: comms

External: N2YO · Heavens-Above · Gunter

§ Orbital elements

Epoch: 2026-05-24T22:20:22.784928Z

Period
94.27 min
Inclination
43.0004°
Eccentricity
0.0001497
Mean motion
15.27583238 rev/d
Perigee alt
482.0 km
Apogee alt
484.1 km
Semi-major
6,861.2 km
B*
4.4760e-4
RAAN
218.2255°
Arg perigee
239.9930°
Mean anomaly
120.0774°
Rev number
7,821

§ Raw data

STARLINK-327491 62508U 25003X   26144.93081927  .00012076  00000+0  44760-3 0  99962 62508  43.0004 218.2255 0001497 239.9930 120.0774 15.27583238 78218

JSON: /api/v1/satellites/62508 · /tle

For live sub-satellite position, see the globe view (requires WebGL).

§ Visibility from observer

Set your observer location to see the next 7 days of passes ≥ 10°. The values pass through the URL so the page stays shareable.

No JS? Fill the form by hand. The geolocation button needs JavaScript.